sat.trackr.live / text

‹ back to catalog

STARLINK-2065

NORAD 47672 · 2021-012BE

PAYLOAD ACTIVE UNKNOWN

§ Identity

Operator
Country
US
Launch date
2021-02-16
Launch site
AFETR
Launch vehicle
Mass (kg)
RCS (m²)

Purposes: comms

External: N2YO · Heavens-Above · Gunter

§ Orbital elements

Epoch: 2026-05-25T06:00:02.000160Z

Period
90.27 min
Inclination
53.1436°
Eccentricity
0.0007014
Mean motion
15.95246778 rev/d
Perigee alt
283.0 km
Apogee alt
292.3 km
Semi-major
6,665.8 km
B*
7.4129e-4
RAAN
345.6417°
Arg perigee
251.4053°
Mean anomaly
212.1085°
Rev number
597

§ Raw data

STARLINK-20651 47672U 21012BE  26145.25002315  .00296576  45678-4  74129-3 0  99932 47672  53.1436 345.6417 0007014 251.4053 212.1085 15.95246778  5976

JSON: /api/v1/satellites/47672 · /tle

For live sub-satellite position, see the globe view (requires WebGL).

§ Visibility from observer

Set your observer location to see the next 7 days of passes ≥ 10°. The values pass through the URL so the page stays shareable.

No JS? Fill the form by hand. The geolocation button needs JavaScript.